Wind_Speed
11 11 12 12 12 13 13 13 13 13 13 13 13 13 14 14 15 15 16 16 16 16 15 15 16 17 17 18 18 18 17 17 17 18 19 20 20 20 20 20 20 20 21
12 12 13 13 13 13 13 13 14 14 14 14 15 15 16 16 17 17 18 17 17 17 17 17 17 17 18 18 18 18 18 18 18 19 21 21 21 21 21 22 22 22 22
12 13 13 14 14 14 14 14 14 15 15 15 16 16 17 17 18 18 18 19 19 17 17 17 17 18 18 18 18 18 19 19 20 20 21 21 22 23 24 24 25 24 24
14 14 14 15 15 15 15 15 15 16 16 16 17 17 18 18 19 19 19 19 19 18 18 18 18 18 18 18 19 19 20 20 20 21 21 22 23 24 25 25 26 26 26
16 16 16 16 17 16 16 16 16 16 17 17 18 18 19 19 20 19 19 19 18 18 19 19 19 19 19 19 20 20 21 21 21 21 22 23 24 24 25 24 25 25 26
17 17 17 18 18 19 18 18 19 19 19 19 19 20 20 20 20 20 20 19 19 19 19 19 19 20 20 21 21 21 22 22 22 22 23 24 25 25 25 25 25 25 26
19 19 19 20 20 20 20 21 21 21 21 22 22 21 21 20 20 20 20 19 20 20 20 20 20 21 21 22 22 23 23 23 23 23 24 24 25 26 26 26 26 27 28
22 22 22 21 22 22 22 22 22 23 22 22 23 22 22 22 21 21 20 20 21 20 21 21 22 22 23 23 23 24 24 25 25 25 25 25 26 27 27 27 27 28 29
23 23 23 23 23 23 23 23 24 23 23 23 23 22 22 22 21 22 21 21 21 21 22 22 23 24 24 24 24 24 25 26 26 26 26 26 26 27 27 27 28 28 29
23 24 24 24 24 24 25 25 25 25 24 24 23 22 22 22 22 23 23 23 23 23 23 24 24 25 25 25 26 26 26 27 27 27 27 27 27 28 28 28 28 30 31
24 24 25 25 25 25 25 25 26 26 25 25 24 24 23 23 23 23 24 24 24 24 25 25 25 26 26 26 27 27 27 27 27 28 27 28 28 29 29 29 30 31 32
25 25 25 25 25 25 26 26 26 25 25 25 24 24 24 24 24 24 25 26 26 26 26 26 26 26 27 27 27 27 28 27 28 28 28 28 28 28 29 30 31 32 32
26 26 26 26 26 26 26 26 26 25 25 25 24 24 24 24 25 25 26 27 27 27 27 27 27 27 27 27 28 28 28 28 28 29 29 29 29 29 30 30 31 32 32
26 26 26 27 27 27 27 26 26 26 26 26 25 25 24 25 25 26 27 27 27 28 28 28 28 28 28 28 28 27 27 27 28 28 29 29 30 30 30 30 31 31 32
27 28 28 28 28 28 28 28 27 26 26 27 27 27 27 27 27 27 28 28 28 28 28 28 28 28 28 28 28 28 27 28 28 28 29 30 31 31 32 32 32 32 33
28 29 29 29 29 29 29 28 27 27 27 27 28 28 28 28 28 28 29 29 29 29 29 29 29 29 29 29 29 28 28 28 29 29 30 31 31 32 33 33 33 33 34
29 29 29 29 29 29 29 28 27 26 27 27 28 28 28 28 29 29 29 29 30 30 30 30 29 29 29 29 29 28 29 29 29 30 30 31 32 33 33 34 34 34 33
29 29 29 29 29 29 29 28 27 27 27 27 28 28 28 29 29 30 29 29 30 30 30 30 30 29 30 30 30 30 30 31 30 31 31 32 33 34 35 35 35 35 35
30 30 30 30 30 30 29 29 28 27 28 28 29 28 28 29 29 30 30 30 30 30 30 30 30 30 30 30 31 31 32 32 32 33 33 34 34 34 35 35 35 35 34
31 31 31 30 30 29 29 29 28 28 29 29 29 29 29 29 29 30 30 30 30 30 30 30 31 31 31 31 31 32 32 32 33 34 34 35 35 35 35 35 35 34 34
31 31 31 31 30 30 29 29 29 29 30 29 29 29 29 29 30 30 30 30 30 30 30 30 31 31 31 31 32 32 32 33 33 34 35 35 35 35 35 35 35 34 34
31 31 31 30 30 30 31 31 31 31 31 30 29 29 30 30 30 30 30 30 30 30 31 31 31 32 32 32 33 33 33 33 34 34 35 35 35 35 35 34 34 34 33
31 31 30 29 30 30 31 31 31 32 31 30 30 30 30 30 29 29 29 29 30 30 31 32 33 33 33 33 33 33 33 34 34 35 34 34 34 33 34 33 33 32 31
30 29 29 29 29 29 30 30 30 30 30 29 29 29 29 29 29 29 29 30 31 31 32 33 34 33 33 33 32 33 33 34 34 34 34 33 32 32 32 32 31 31 30
28 28 28 28 28 29 29 29 29 29 29 28 28 28 29 29 29 30 30 30 31 31 32 33 33 33 32 32 32 32 32 33 32 33 32 31 31 31 30 30 30 30 30
26 27 28 29 29 29 29 29 29 29 29 29 28 29 29 29 29 29 30 30 30 31 32 32 31 31 31 31 31 30 31 31 31 31 31 31 30 30 30 30 30 30 31
Wind_Direction
330 332 332 331 332 332 331 332 334 335 335 332 327 326 326 325 323 320 318 316 315 316 313 311 309 309 310 310 308 306 302 299 298 296 295 295 297 298 297 295 295 295 294
319 324 325 325 328 330 328 326 327 329 329 327 324 323 321 320 319 317 316 314 313 311 309 309 308 310 311 310 308 306 302 300 298 297 297 295 296 297 297 296 295 294 294
314 318 322 322 323 325 322 319 319 321 322 321 318 318 317 317 316 315 314 313 312 310 309 310 311 312 312 310 308 306 304 302 300 299 297 296 296 297 297 297 296 295 294
311 314 317 319 319 319 318 316 316 317 317 318 316 315 315 315 314 312 312 312 313 312 312 312 311 312 312 311 309 308 307 304 302 301 300 298 298 299 299 298 297 296 295
305 307 310 314 317 315 312 311 311 312 313 314 315 316 315 315 314 314 315 314 313 313 313 312 311 309 309 309 309 308 308 306 304 302 300 300 298 299 300 300 300 298 297
298 301 304 307 310 310 309 314 314 312 310 310 312 312 312 313 314 314 314 315 315 314 312 313 311 309 309 310 311 310 308 307 305 302 302 300 299 299 300 301 301 299 298
293 295 298 302 304 307 309 311 311 311 310 308 307 308 310 312 313 313 312 313 314 315 315 314 313 311 310 309 310 309 307 307 306 305 304 303 301 301 302 301 299 298 298
290 293 294 297 299 302 304 305 306 307 309 308 307 307 309 311 313 314 312 311 311 312 312 312 312 310 308 307 307 307 306 305 305 305 305 304 303 302 301 299 297 298 298
289 291 293 296 298 299 301 302 302 303 305 306 306 304 306 308 310 312 313 311 312 313 312 310 310 310 309 308 307 307 307 307 306 305 305 305 304 304 302 300 299 298 298
286 288 291 294 296 297 298 301 302 302 304 305 303 303 303 306 308 309 310 311 312 311 310 309 308 308 308 307 307 307 306 305 304 303 303 304 304 304 303 301 300 299 298
283 286 289 292 294 296 298 301 302 303 303 303 302 303 303 304 305 306 307 308 309 309 309 308 307 307 307 308 307 307 306 305 304 304 303 303 303 303 303 303 302 301 301
280 284 287 290 293 295 297 300 301 301 301 300 300 300 302 303 304 305 307 308 309 310 310 309 308 308 308 307 306 307 307 306 305 304 304 304 303 303 303 302 302 302 302
277 281 284 288 291 293 295 297 298 298 300 300 299 299 300 301 303 304 305 306 308 308 309 309 308 308 306 306 305 305 306 305 305 304 303 303 304 303 303 303 302 302 303
276 278 281 285 289 291 293 294 296 297 299 299 299 299 299 300 301 303 303 304 305 306 307 307 307 308 307 307 307 306 306 306 306 306 306 305 305 304 305 305 304 304 304
274 277 279 282 286 289 291 293 295 297 298 299 298 298 298 299 300 301 301 302 304 305 306 306 307 307 307 307 306 305 305 306 306 305 306 306 305 305 305 305 305 305 304
275 277 278 280 283 287 289 291 293 295 297 297 295 295 297 299 300 300 301 302 302 304 305 306 306 306 307 307 306 305 303 304 306 306 305 305 305 305 305 305 306 305 305
274 276 278 279 282 285 287 288 290 292 294 296 295 297 298 298 299 300 301 301 302 303 304 305 305 305 305 306 306 307 306 305 305 305 306 306 306 306 306 306 307 307 306
273 275 277 278 281 284 285 286 287 289 292 294 296 298 298 299 299 300 301 301 302 303 304 304 305 306 305 305 306 307 307 307 305 305 305 306 306 305 306 307 307 307 307
273 275 276 277 280 283 284 285 286 289 292 294 295 297 298 299 300 301 302 302 302 303 303 304 305 305 306 306 306 306 307 307 306 306 306 307 307 307 306 307 307 307 307
272 274 275 276 279 281 283 284 286 288 290 291 293 295 297 299 300 301 302 302 302 303 303 303 304 305 305 305 306 306 306 306 306 307 307 307 307 307 307 307 307 308 307
271 273 273 275 277 279 282 283 284 286 288 289 291 293 296 298 299 300 301 301 302 302 303 303 304 305 305 304 305 305 306 306 307 308 308 307 307 307 307 307 307 307 306
271 272 272 273 275 278 280 281 283 285 287 288 290 292 294 296 298 300 301 302 303 303 304 304 304 305 305 305 306 306 306 307 307 308 308 307 307 308 309 308 307 306 306
270 272 272 274 276 279 281 282 283 285 287 288 290 292 294 296 297 298 300 301 302 303 305 305 305 305 305 306 306 306 307 307 308 309 310 309 309 309 309 309 308 308 306
269 271 272 274 276 278 280 282 283 284 286 287 289 291 294 295 296 297 298 300 302 303 304 305 305 304 304 305 305 306 307 308 309 310 310 309 309 310 309 309 309 308 307
269 271 272 275 277 280 281 282 282 283 285 287 289 291 293 294 295 297 298 301 303 304 304 304 304 304 304 305 305 306 307 308 309 310 311 310 310 309 309 309 309 309 308
270 271 273 274 277 278 280 281 282 284 286 288 290 291 293 294 296 297 299 300 302 303 304 305 304 305 307 308 308 309 310 310 311 311 311 311 311 310 310 310 310 310 310
Height
5904 5902 5901 5900 5898 5897 5896 5895 5893 5892 5890 5889 5887 5886 5884 5883 5881 5879 5877 5876 5874 5872 5870 5868 5867 5866 5864 5862 5860 5858 5857 5857 5856 5854 5853 5851 5849 5848 5847 5846 5844 5843 5841
5902 5901 5900 5898 5897 5895 5894 5893 5892 5890 5889 5887 5886 5884 5882 5881 5879 5877 5875 5873 5871 5868 5867 5866 5864 5862 5860 5858 5856 5855 5853 5852 5851 5850 5848 5846 5845 5843 5842 5841 5839 5838 5836
5900 5899 5898 5896 5895 5894 5893 5891 5890 5888 5887 5885 5883 5882 5880 5878 5876 5873 5871 5869 5867 5865 5864 5862 5861 5858 5856 5854 5852 5851 5849 5848 5846 5845 5843 5841 5839 5838 5836 5834 5832 5831 5830
5898 5898 5896 5895 5893 5892 5891 5889 5888 5886 5884 5883 5881 5878 5876 5874 5872 5870 5867 5865 5863 5862 5860 5859 5856 5855 5853 5851 5849 5847 5845 5843 5841 5839 5838 5836 5834 5831 5830 5828 5826 5824 5823
5896 5895 5894 5892 5891 5889 5888 5887 5885 5883 5882 5880 5877 5875 5873 5870 5868 5866 5863 5861 5859 5858 5856 5854 5852 5851 5848 5847 5844 5842 5840 5838 5836 5834 5832 5830 5828 5826 5824 5821 5819 5817 5815
5893 5892 5891 5889 5888 5886 5884 5883 5881 5880 5878 5876 5874 5871 5869 5866 5864 5862 5859 5858 5856 5854 5852 5850 5848 5846 5844 5842 5840 5838 5836 5833 5831 5829 5827 5824 5822 5820 5817 5815 5812 5811 5809
5889 5888 5887 5886 5884 5882 5881 5879 5878 5876 5874 5872 5869 5867 5865 5862 5859 5857 5855 5854 5852 5850 5848 5846 5843 5841 5839 5837 5835 5833 5830 5828 5826 5823 5821 5818 5816 5813 5811 5808 5806 5804 5802
5885 5884 5883 5881 5880 5878 5877 5875 5873 5871 5869 5867 5865 5862 5860 5858 5855 5853 5851 5849 5847 5845 5843 5841 5839 5837 5834 5832 5830 5827 5824 5822 5819 5817 5814 5812 5809 5806 5804 5802 5799 5796 5794
5880 5879 5878 5877 5875 5874 5872 5871 5868 5866 5864 5862 5860 5858 5856 5853 5851 5849 5847 5845 5843 5841 5838 5836 5834 5831 5829 5826 5824 5821 5819 5816 5813 5810 5808 5805 5802 5799 5796 5794 5791 5789 5786
5875 5874 5873 5872 5870 5868 5867 5865 5863 5861 5859 5857 5855 5853 5851 5849 5847 5845 5842 5840 5838 5836 5833 5831 5828 5826 5823 5820 5818 5815 5813 5810 5807 5804 5801 5798 5795 5792 5790 5787 5784 5782 5778
5870 5869 5868 5867 5865 5863 5862 5859 5857 5855 5853 5852 5850 5848 5846 5845 5843 5840 5838 5835 5833 5830 5828 5825 5822 5819 5817 5814 5811 5808 5806 5803 5800 5797 5794 5791 5788 5786 5783 5780 5777 5774 5770
5864 5864 5863 5861 5860 5858 5856 5854 5852 5850 5848 5846 5845 5843 5841 5839 5837 5835 5832 5830 5827 5824 5822 5819 5816 5813 5810 5808 5805 5802 5799 5795 5793 5790 5787 5784 5781 5778 5775 5772 5769 5765 5762
5858 5858 5857 5856 5854 5853 5851 5849 5847 5845 5843 5841 5839 5838 5836 5834 5832 5829 5827 5824 5821 5819 5816 5813 5810 5807 5804 5801 5798 5795 5792 5788 5786 5783 5780 5777 5774 5771 5768 5764 5761 5757 5754
5852 5851 5850 5849 5848 5847 5845 5843 5841 5839 5837 5835 5833 5831 5830 5828 5826 5823 5821 5818 5815 5812 5810 5807 5804 5800 5797 5794 5791 5788 5785 5782 5779 5776 5772 5769 5766 5763 5760 5756 5753 5750 5746
5845 5845 5844 5843 5842 5840 5839 5837 5835 5833 5831 5829 5827 5825 5823 5821 5819 5817 5814 5812 5809 5806 5803 5800 5797 5794 5791 5787 5784 5781 5778 5775 5772 5768 5765 5762 5759 5755 5752 5748 5745 5741 5737
5838 5837 5837 5836 5835 5833 5832 5830 5828 5827 5824 5822 5820 5818 5816 5814 5812 5809 5807 5805 5802 5799 5796 5793 5790 5787 5783 5780 5776 5773 5770 5767 5764 5761 5757 5754 5750 5747 5743 5740 5736 5732 5729
5830 5829 5829 5828 5827 5826 5825 5824 5822 5820 5818 5816 5813 5811 5809 5807 5805 5802 5800 5797 5795 5792 5789 5786 5783 5780 5776 5773 5769 5766 5763 5760 5756 5753 5749 5746 5742 5738 5735 5731 5727 5723 5720
5822 5821 5821 5820 5820 5819 5818 5816 5815 5813 5812 5809 5807 5805 5803 5800 5798 5795 5793 5790 5787 5784 5781 5778 5775 5772 5769 5765 5762 5759 5755 5752 5748 5745 5741 5737 5734 5730 5726 5722 5718 5714 5711
5814 5813 5813 5812 5812 5811 5810 5809 5807 5806 5804 5803 5801 5798 5796 5793 5791 5788 5785 5783 5780 5777 5774 5771 5767 5764 5761 5758 5754 5751 5747 5743 5740 5736 5733 5729 5725 5721 5717 5713 5709 5705 5701
5805 5805 5805 5804 5804 5803 5802 5801 5800 5798 5797 5795 5793 5791 5789 5786 5783 5781 5778 5775 5772 5769 5766 5763 5760 5756 5753 5749 5746 5742 5739 5735 5731 5728 5724 5720 5716 5712 5708 5704 5700 5696 5692
5797 5797 5796 5796 5796 5795 5794 5793 5792 5791 5789 5787 5786 5783 5781 5778 5776 5773 5770 5768 5764 5761 5758 5755 5752 5748 5745 5741 5737 5734 5730 5726 5723 5719 5715 5711 5707 5703 5698 5694 5690 5686 5683
5788 5788 5788 5787 5787 5786 5786 5785 5784 5782 5781 5779 5778 5775 5773 5771 5768 5765 5763 5760 5757 5754 5751 5747 5744 5740 5737 5733 5729 5725 5721 5718 5714 5710 5706 5702 5698 5693 5689 5685 5681 5677 5673
5779 5779 5779 5779 5778 5778 5777 5776 5775 5774 5772 5770 5769 5767 5764 5762 5760 5757 5755 5752 5749 5746 5742 5739 5735 5732 5728 5724 5720 5716 5713 5709 5705 5701 5697 5693 5688 5684 5680 5676 5672 5668 5665
5770 5770 5770 5770 5770 5769 5768 5768 5767 5765 5764 5762 5760 5758 5756 5754 5752 5749 5747 5744 5741 5738 5734 5730 5727 5723 5719 5715 5711 5708 5704 5700 5696 5692 5688 5684 5680 5676 5672 5668 5664 5660 5656
5761 5761 5762 5761 5761 5761 5760 5759 5758 5757 5755 5754 5752 5750 5748 5746 5743 5741 5738 5736 5732 5729 5725 5722 5718 5714 5710 5706 5702 5699 5695 5691 5687 5683 5679 5675 5671 5667 5663 5660 5656 5652 5648
5753 5753 5753 5753 5753 5752 5752 5751 5750 5749 5747 5746 5744 5742 5740 5738 5736 5733 5730 5727 5724 5720 5717 5713 5710 5705 5701 5698 5694 5690 5687 5683 5679 5675 5671 5667 5663 5659 5656 5652 5648 5644 5640